Regional Weather Roundup
Issued by NWS

Home | Current Version | Previous Version | Text Only | Print | Product List | Glossary On
Versions: 1 2 3 4 5 6 7 8 9 10 11 12 13 14 15 16 17 18 19 20 21 22 23 24 25 26 27 28 29 30 31 32 33 34 35 36 37 38 39 40 41 42 43 44 45 46 47 48 49 50
012
ASUS42 KKEY 071410
RWRKEY

FLORIDA REGIONAL WEATHER ROUNDUP FOR THE FLORIDA KEYS
NATIONAL WEATHER SERVICE KEY WEST FLORIDA
900 AM EST WED DEC 07 2016

...SOUTH FLORIDA AND THE KEYS...

CITY           SKY/WX    TMP DP  RH WIND       PRES   REMARKS
FORT MYERS     CLOUDY    72  68  87 NE8       30.07R
SW REGIONAL AP PTSUNNY   71  68  90 NE7       30.07R
NAPLES         PTSUNNY   72  69  90 NE8       30.06S
MIAMI          MOSUNNY   78  73  84 CALM      30.05S
WEST KENDALL   MOSUNNY  N/A N/A N/A NW3       30.06R
HOMESTEAD      PTSUNNY   76  76 100 CALM      30.06R
MARATHON       PTSUNNY   80  77  90 CALM      30.06R
BOCA CHICA NAS CLOUDY    76  74  93 CALM      30.05R
KEY WEST INTL  CLOUDY    78  76  93 CALM      30.06R

...INTERNATIONAL WEATHER...

CITY           SKY/WX    TMP DP  RH WIND       PRES   REMARKS
NASSAU BAHAMAS PTSUNNY   77  75  94 CALM      30.05
CANCUN MEXICO  PTSUNNY   82  77  83 SE6       30.01R HX  91
COZUMEL MEXICO MOSUNNY   81  77  89 CALM      29.99R

ADJACENT COASTAL WATERS...

STATION/POSITION TIME  SKY/WX   TEMP    WIND        PRES    WAVE
                                AIR SEA DIR/SP/G            HT/PER
                 (UTC)          (F)     (DEG/KT/KT) (MB)    (FT/S)
PULASKI SHOAL LI 1400            76     110/  3/  3 1018.1R
SAND KEY         1350            77     180/  3/  4 1018.2R
LONG KEY         1400            79 79     CALM     1018.2R
MOLASSES REEF    NOT AVBL
FOWEY ROCKS      1400            77 78  310/  1/  2 1018.6R

$$




USA.gov is the U.S. government's official web portal to all federal, state and local government web resources and services.